WXM80 ListenWXM80 Stop

You find our weather info also at:

UK Metoffice

WeatherCloud

Weather Underground

Northeastern Weather Network

AWEKAS

Citizen Weather Observer Program (CWOP)

HAMweather, WeatherForYou, PWS Weather


Weather Underground History page Text

Daily Summary for June 27, 2016 Units:  English    Metric   Both
« Previous Day
Next Day »
Daily Weekly Monthly Yearly Custom
  High: Low: Average:
Temperature: 85.1 °F 63.3 °F 73.4 °F
Dew Point: 69.8 °F 56.0 °F 63.8 °F
Humidity: 89 % 50 % 73 %
Wind Speed: 7.1 mph 0.0 mph 1.9 mph
Wind Gust: 13.8 mph - -
Wind:- - SSW
Pressure: 30.10 in 29.97 in -
Precipitation: 0.01 in    
Historical Graphs
 
 
Tabular Data for June 27, 2016
Time Temperature Dew Point Pressure Wind Wind Speed Wind Gust Humidity Rainfall Rate (Hourly)
00:03 66.4 °F 59.3 °F 30.10 in Calm     78 % 0.00 in
00:08 66.3 °F 59.2 °F 30.10 in Calm     78 % 0.00 in
00:13 66.2 °F 59.1 °F 30.10 in Calm     78 % 0.00 in
00:19 66.1 °F 59.0 °F 30.10 in Calm     78 % 0.00 in
00:24 66.0 °F 58.9 °F 30.10 in Calm     78 % 0.00 in
00:29 65.9 °F 59.2 °F 30.10 in Calm     79 % 0.00 in
00:34 65.8 °F 59.1 °F 30.10 in Calm     79 % 0.00 in
00:39 65.6 °F 59.3 °F 30.10 in Calm     80 % 0.00 in
00:49 65.4 °F 59.1 °F 30.09 in Calm     80 % 0.00 in
00:54 65.3 °F 59.0 °F 30.10 in Calm     80 % 0.00 in
00:59 65.2 °F 58.9 °F 30.10 in Calm     80 % 0.00 in
01:04 65.1 °F 59.1 °F 30.10 in Calm     81 % 0.00 in
01:10 65.0 °F 59.4 °F 30.10 in Calm     82 % 0.00 in
01:15 64.9 °F 59.6 °F 30.10 in Calm     83 % 0.00 in
01:20 64.9 °F 59.6 °F 30.10 in West 0.1 mph 1.2 mph 83 % 0.00 in
01:25 64.9 °F 60.3 °F 30.10 in Calm   1.2 mph 85 % 0.00 in
01:35 64.8 °F 60.5 °F 30.10 in WSW 0.6 mph 2.3 mph 86 % 0.00 in
01:40 64.8 °F 60.5 °F 30.10 in WSW 0.3 mph 2.3 mph 86 % 0.00 in
01:45 64.9 °F 60.3 °F 30.10 in WSW 0.8 mph 2.3 mph 85 % 0.00 in
01:50 64.8 °F 60.2 °F 30.10 in WSW 1.6 mph 3.5 mph 85 % 0.00 in
01:55 64.9 °F 59.9 °F 30.10 in WSW 0.2 mph 1.2 mph 84 % 0.00 in
02:01 64.9 °F 59.9 °F 30.10 in SSW 0.8 mph 1.2 mph 84 % 0.00 in
02:06 64.9 °F 59.6 °F 30.10 in SW 1.1 mph 3.5 mph 83 % 0.00 in
02:11 65.0 °F 59.4 °F 30.10 in SW 1.2 mph 4.6 mph 82 % 0.00 in
02:16 65.0 °F 59.4 °F 30.10 in WSW 0.4 mph 3.0 mph 82 % 0.00 in
02:21 65.1 °F 59.1 °F 30.10 in SW 0.3 mph 1.2 mph 81 % 0.00 in
02:26 65.2 °F 58.9 °F 30.10 in SW 1.0 mph 3.0 mph 80 % 0.00 in
02:31 65.3 °F 58.6 °F 30.09 in SW 0.5 mph 3.5 mph 79 % 0.00 in
02:41 65.4 °F 58.0 °F 30.09 in SSW 1.6 mph 3.0 mph 77 % 0.00 in
02:46 65.5 °F 58.1 °F 30.09 in SW 0.7 mph 2.3 mph 77 % 0.00 in
02:52 65.5 °F 58.1 °F 30.08 in SW 0.7 mph 4.6 mph 77 % 0.00 in
02:57 65.6 °F 57.8 °F 30.09 in WSW 0.6 mph 3.5 mph 76 % 0.00 in
03:02 65.6 °F 57.8 °F 30.09 in SW 0.5 mph 2.3 mph 76 % 0.00 in
03:07 65.7 °F 57.6 °F 30.09 in SW 0.9 mph 4.0 mph 75 % 0.00 in
03:12 65.7 °F 57.6 °F 30.09 in SSW 1.5 mph 3.0 mph 75 % 0.00 in
03:17 65.7 °F 57.2 °F 30.09 in SW 1.2 mph 3.0 mph 74 % 0.00 in
03:22 65.8 °F 57.3 °F 30.09 in SW 1.4 mph 6.0 mph 74 % 0.00 in
03:27 65.8 °F 57.3 °F 30.09 in SW 0.8 mph 2.3 mph 74 % 0.00 in
03:32 65.8 °F 57.3 °F 30.09 in SW 0.2 mph 1.2 mph 74 % 0.00 in
03:37 65.7 °F 57.2 °F 30.08 in SSW 0.3 mph 4.6 mph 74 % 0.00 in
03:43 65.7 °F 56.8 °F 30.09 in SSW 0.9 mph 3.5 mph 73 % 0.00 in
03:48 65.7 °F 56.8 °F 30.08 in SW 2.7 mph 3.5 mph 73 % 0.00 in
03:53 65.6 °F 56.7 °F 30.08 in SSW 1.6 mph 3.5 mph 73 % 0.00 in
03:58 65.6 °F 56.7 °F 30.08 in WSW 2.3 mph 8.0 mph 73 % 0.00 in
04:03 65.6 °F 56.7 °F 30.08 in SW 0.1 mph 1.2 mph 73 % 0.00 in
04:13 65.5 °F 56.6 °F 30.08 in SW 0.5 mph 3.5 mph 73 % 0.00 in
04:18 65.5 °F 56.6 °F 30.08 in WSW 2.2 mph 5.0 mph 73 % 0.00 in
04:28 65.4 °F 56.5 °F 30.08 in WSW 0.6 mph 3.5 mph 73 % 0.00 in
04:34 65.3 °F 56.4 °F 30.08 in WSW 1.0 mph 4.6 mph 73 % 0.00 in
04:39 65.2 °F 56.7 °F 30.08 in WSW 0.6 mph 3.5 mph 74 % 0.00 in
04:44 65.1 °F 56.6 °F 30.09 in WSW 0.5 mph 3.5 mph 74 % 0.00 in
04:54 64.9 °F 56.0 °F 30.09 in WSW 0.1 mph 2.3 mph 73 % 0.00 in
04:59 64.9 °F 56.0 °F 30.09 in WSW 0.3 mph 2.3 mph 73 % 0.00 in
05:04 64.8 °F 56.3 °F 30.09 in WSW 0.4 mph 1.2 mph 74 % 0.00 in
05:09 64.7 °F 56.2 °F 30.09 in WSW 1.4 mph 3.0 mph 74 % 0.00 in
05:14 64.5 °F 56.0 °F 30.09 in Calm     74 % 0.00 in
05:19 64.4 °F 56.3 °F 30.09 in Calm     75 % 0.00 in
05:25 64.2 °F 56.5 °F 30.09 in Calm     76 % 0.00 in
05:30 64.1 °F 56.4 °F 30.09 in Calm     76 % 0.00 in
05:35 64.0 °F 56.3 °F 30.09 in Calm   1.2 mph 76 % 0.00 in
05:40 63.8 °F 56.4 °F 30.09 in WSW 1.4 mph 3.5 mph 77 % 0.00 in
05:45 63.6 °F 56.3 °F 30.09 in SW 2.1 mph 3.5 mph 77 % 0.00 in
05:50 63.5 °F 56.5 °F 30.09 in SSW 1.4 mph 3.5 mph 78 % 0.00 in
05:55 63.4 °F 56.4 °F 30.09 in SW 1.7 mph 2.3 mph 78 % 0.00 in
06:00 63.3 °F 56.3 °F 30.09 in SW 0.3 mph 1.2 mph 78 % 0.00 in
06:05 63.3 °F 56.7 °F 30.09 in Calm   2.3 mph 79 % 0.00 in
06:10 63.3 °F 56.7 °F 30.09 in SW 0.6 mph 2.3 mph 79 % 0.00 in
06:16 63.3 °F 57.0 °F 30.09 in Calm   1.2 mph 80 % 0.00 in
06:21 63.4 °F 57.1 °F 30.09 in SW 0.2 mph 1.2 mph 80 % 0.00 in
06:26 63.5 °F 57.2 °F 30.09 in Calm     80 % 0.00 in
06:31 63.7 °F 57.4 °F 30.09 in SW 1.2 mph 2.3 mph 80 % 0.00 in
06:36 63.9 °F 58.0 °F 30.09 in SW 0.9 mph 3.5 mph 81 % 0.00 in
06:41 64.1 °F 58.5 °F 30.09 in SW 1.7 mph 3.5 mph 82 % 0.00 in
06:46 64.5 °F 58.9 °F 30.09 in SW 0.8 mph 2.3 mph 82 % 0.00 in
06:51 64.8 °F 59.2 °F 30.09 in Calm   3.5 mph 82 % 0.00 in
06:56 65.2 °F 59.2 °F 30.09 in SW 2.1 mph 3.5 mph 81 % 0.00 in
07:01 65.6 °F 59.6 °F 30.09 in West 3.4 mph 5.8 mph 81 % 0.00 in
07:07 66.1 °F 60.1 °F 30.09 in SW 3.1 mph 5.8 mph 81 % 0.00 in
07:12 66.7 °F 60.3 °F 30.08 in SSW 1.4 mph 5.8 mph 80 % 0.00 in
07:22 67.8 °F 61.4 °F 30.08 in SSW 2.2 mph 3.5 mph 80 % 0.00 in
07:27 68.4 °F 61.6 °F 30.08 in SW 1.0 mph 3.5 mph 79 % 0.00 in
07:32 68.9 °F 61.8 °F 30.08 in WSW 2.0 mph 3.5 mph 78 % 0.00 in
07:37 69.5 °F 61.6 °F 30.08 in SSE 0.7 mph 3.5 mph 76 % 0.00 in
07:42 69.9 °F 62.0 °F 30.08 in SW 0.8 mph 3.0 mph 76 % 0.00 in
07:47 70.1 °F 61.8 °F 30.08 in WSW 0.6 mph 3.5 mph 75 % 0.00 in
07:52 70.3 °F 61.6 °F 30.08 in SSW 1.8 mph 5.0 mph 74 % 0.00 in
07:58 70.3 °F 61.6 °F 30.08 in ESE 0.5 mph 1.2 mph 74 % 0.00 in
08:03 70.4 °F 60.9 °F 30.08 in SE 1.9 mph 3.5 mph 72 % 0.00 in
08:08 70.5 °F 61.0 °F 30.08 in SE 0.3 mph 2.3 mph 72 % 0.00 in
08:13 70.6 °F 61.1 °F 30.08 in SW 0.6 mph 3.5 mph 72 % 0.00 in
08:18 70.7 °F 60.8 °F 30.08 in SE 1.2 mph 3.5 mph 71 % 0.00 in
08:23 70.8 °F 60.9 °F 30.08 in SE 2.8 mph 3.5 mph 71 % 0.00 in
08:28 71.0 °F 60.7 °F 30.08 in SE 1.2 mph 3.5 mph 70 % 0.00 in
08:33 71.2 °F 61.3 °F 30.08 in South 1.9 mph 3.5 mph 71 % 0.00 in
08:38 71.6 °F 61.3 °F 30.08 in WSW 1.6 mph 2.3 mph 70 % 0.00 in
08:43 71.9 °F 61.2 °F 30.09 in SE 0.9 mph 3.5 mph 69 % 0.00 in
08:49 72.2 °F 61.5 °F 30.09 in South 0.1 mph 3.5 mph 69 % 0.00 in
08:54 72.4 °F 61.7 °F 30.09 in SW 4.1 mph 10.4 mph 69 % 0.00 in
08:59 72.5 °F 61.7 °F 30.08 in South 0.3 mph 1.2 mph 69 % 0.00 in
09:04 72.6 °F 61.8 °F 30.08 in SSE 0.9 mph 3.5 mph 69 % 0.00 in
09:09 72.8 °F 62.0 °F 30.08 in South 0.8 mph 3.5 mph 69 % 0.00 in
09:14 72.9 °F 61.7 °F 30.08 in SE 2.8 mph 4.0 mph 68 % 0.00 in
09:24 73.4 °F 62.2 °F 30.08 in SSE 0.9 mph 3.5 mph 68 % 0.00 in
09:29 73.6 °F 62.8 °F 30.08 in SW 2.5 mph 6.9 mph 69 % 0.00 in
09:34 73.7 °F 62.9 °F 30.08 in SSW 2.6 mph 8.1 mph 69 % 0.00 in
09:40 74.0 °F 63.2 °F 30.08 in SW 0.3 mph 2.3 mph 69 % 0.00 in
09:45 74.2 °F 63.8 °F 30.07 in SW 1.6 mph 3.5 mph 70 % 0.00 in
09:50 74.7 °F 63.9 °F 30.07 in SSE 1.7 mph 3.5 mph 69 % 0.00 in
09:55 75.6 °F 64.3 °F 30.07 in SW 3.8 mph 6.9 mph 68 % 0.00 in
10:00 76.5 °F 63.9 °F 30.07 in SW 1.3 mph 3.5 mph 65 % 0.00 in
10:05 77.1 °F 64.4 °F 30.06 in SSW 0.7 mph 3.5 mph 65 % 0.00 in
10:10 77.7 °F 65.0 °F 30.06 in SW 2.0 mph 5.8 mph 65 % 0.00 in
10:15 78.3 °F 65.1 °F 30.07 in WSW 3.8 mph 6.0 mph 64 % 0.00 in
10:20 79.1 °F 65.0 °F 30.06 in SSW 2.6 mph 7.0 mph 62 % 0.00 in
10:25 79.7 °F 65.1 °F 30.06 in SW 5.3 mph 5.3 mph 61 % 0.00 in
10:31 80.6 °F 65.4 °F 30.06 in SW 4.3 mph 6.9 mph 60 % 0.00 in
10:36 81.5 °F 65.8 °F 30.05 in WSW 1.6 mph 3.5 mph 59 % 0.00 in
10:41 82.4 °F 64.6 °F 30.06 in ESE 1.2 mph 3.5 mph 55 % 0.00 in
10:46 82.5 °F 63.6 °F 30.05 in SSE 3.3 mph 6.9 mph 53 % 0.00 in
10:51 82.4 °F 64.1 °F 30.05 in WSW 0.4 mph 3.0 mph 54 % 0.00 in
10:56 82.4 °F 64.1 °F 30.05 in WNW 1.2 mph 4.6 mph 54 % 0.00 in
11:01 82.6 °F 64.3 °F 30.05 in SSE 1.1 mph 5.8 mph 54 % 0.00 in
11:06 82.5 °F 63.1 °F 30.05 in SSW 2.9 mph 4.0 mph 52 % 0.00 in
11:11 82.9 °F 64.5 °F 30.05 in SSW 1.9 mph 4.6 mph 54 % 0.00 in
11:16 83.2 °F 64.8 °F 30.05 in SE 1.8 mph 9.0 mph 54 % 0.00 in
11:22 83.5 °F 66.7 °F 30.04 in SSW 2.8 mph 6.9 mph 57 % 0.00 in
11:27 83.7 °F 63.7 °F 30.04 in WNW 1.1 mph 3.5 mph 51 % 0.00 in
11:32 83.8 °F 63.7 °F 30.05 in SE 1.8 mph 5.8 mph 51 % 0.00 in
11:37 84.0 °F 66.1 °F 30.05 in SW 5.7 mph 8.1 mph 55 % 0.00 in
11:42 84.3 °F 65.3 °F 30.04 in Calm   2.3 mph 53 % 0.00 in
11:47 84.5 °F 63.8 °F 30.05 in SW 3.3 mph 10.4 mph 50 % 0.00 in
11:52 84.6 °F 64.5 °F 30.05 in SE 3.2 mph 8.0 mph 51 % 0.00 in
11:57 84.2 °F 65.8 °F 30.04 in SE 3.7 mph 10.4 mph 54 % 0.00 in
12:02 84.0 °F 65.6 °F 30.04 in SW 6.7 mph 8.1 mph 54 % 0.00 in
12:07 84.3 °F 66.9 °F 30.04 in SW 2.5 mph 6.9 mph 56 % 0.00 in
12:13 84.8 °F 66.8 °F 30.04 in SSW 3.1 mph 6.0 mph 55 % 0.00 in
12:18 85.1 °F 67.1 °F 30.04 in South 1.8 mph 5.0 mph 55 % 0.00 in
12:23 84.9 °F 66.9 °F 30.04 in SSW 3.0 mph 6.9 mph 55 % 0.00 in
12:28 84.7 °F 67.8 °F 30.03 in SSW 3.1 mph 5.8 mph 57 % 0.00 in
12:33 84.2 °F 67.3 °F 30.04 in SE 1.4 mph 8.1 mph 57 % 0.00 in
12:38 84.5 °F 67.6 °F 30.03 in WSW 1.0 mph 3.5 mph 57 % 0.00 in
12:43 84.3 °F 67.9 °F 30.03 in SSW 2.4 mph 5.8 mph 58 % 0.00 in
12:48 84.1 °F 68.2 °F 30.03 in SE 1.9 mph 6.9 mph 59 % 0.00 in
12:53 83.9 °F 68.0 °F 30.03 in SSW 5.3 mph 10.4 mph 59 % 0.00 in
12:59 83.4 °F 68.1 °F 30.03 in SSE 2.6 mph 8.1 mph 60 % 0.00 in
13:04 82.7 °F 68.8 °F 30.03 in SSW 2.6 mph 5.8 mph 63 % 0.00 in
13:09 82.7 °F 69.3 °F 30.03 in SSW 2.7 mph 5.8 mph 64 % 0.00 in
13:14 83.0 °F 69.6 °F 30.02 in SSE 1.3 mph 4.6 mph 64 % 0.00 in
13:19 83.2 °F 69.3 °F 30.02 in SSW 2.4 mph 6.0 mph 63 % 0.00 in
13:24 83.4 °F 68.5 °F 30.02 in SW 6.1 mph 10.4 mph 61 % 0.00 in
13:29 83.0 °F 68.6 °F 30.02 in SSE 3.8 mph 6.0 mph 62 % 0.00 in
13:34 82.4 °F 69.0 °F 30.02 in South 1.6 mph 3.5 mph 64 % 0.00 in
13:39 81.8 °F 68.0 °F 30.01 in ESE 5.4 mph 11.5 mph 63 % 0.00 in
13:44 81.2 °F 68.3 °F 30.01 in SSE 1.6 mph 5.8 mph 65 % 0.00 in
13:50 81.1 °F 68.7 °F 30.01 in SSW 7.1 mph 9.0 mph 66 % 0.00 in
13:55 81.3 °F 68.0 °F 30.01 in WSW 3.0 mph 11.5 mph 64 % 0.00 in
14:00 81.6 °F 68.7 °F 30.00 in SE 2.4 mph 11.5 mph 65 % 0.00 in
14:05 81.4 °F 68.1 °F 30.00 in SSW 4.2 mph 6.9 mph 64 % 0.00 in
14:10 81.4 °F 68.1 °F 30.00 in SW 5.1 mph 11.5 mph 64 % 0.00 in
14:15 82.0 °F 69.5 °F 30.00 in SE 3.5 mph 9.0 mph 66 % 0.00 in
14:20 82.0 °F 68.2 °F 30.00 in South 3.9 mph 6.9 mph 63 % 0.00 in
14:25 81.4 °F 68.1 °F 30.00 in SE 3.2 mph 11.5 mph 64 % 0.00 in
14:30 80.9 °F 68.0 °F 30.00 in SE 2.4 mph 7.0 mph 65 % 0.00 in
14:35 81.3 °F 69.3 °F 30.00 in South 5.1 mph 5.1 mph 67 % 0.00 in
14:41 81.3 °F 68.4 °F 30.00 in SSE 3.6 mph 11.5 mph 65 % 0.00 in
14:46 81.4 °F 69.8 °F 30.00 in SSW 2.9 mph 9.2 mph 68 % 0.00 in
14:51 81.6 °F 69.1 °F 29.99 in WSW 1.4 mph 4.0 mph 66 % 0.00 in
14:56 81.1 °F 68.7 °F 29.99 in SSE 2.8 mph 5.8 mph 66 % 0.00 in
15:01 81.1 °F 68.7 °F 29.99 in South 5.4 mph 12.7 mph 66 % 0.00 in
15:06 80.9 °F 68.5 °F 29.99 in SSW 4.1 mph 9.2 mph 66 % 0.00 in
15:11 80.5 °F 68.5 °F 29.98 in SSW 2.2 mph 10.4 mph 67 % 0.00 in
15:16 80.3 °F 68.3 °F 29.99 in SSE 4.0 mph 9.2 mph 67 % 0.00 in
15:21 80.3 °F 68.8 °F 29.98 in SSW 4.1 mph 7.0 mph 68 % 0.00 in
15:26 80.6 °F 68.6 °F 29.98 in SE 3.4 mph 8.0 mph 67 % 0.00 in
15:32 80.8 °F 68.8 °F 29.98 in SSW 4.0 mph 8.1 mph 67 % 0.00 in
15:37 81.0 °F 69.0 °F 29.98 in West 4.0 mph 6.9 mph 67 % 0.00 in
15:42 81.1 °F 68.7 °F 29.99 in ESE 6.9 mph 13.8 mph 66 % 0.00 in
15:47 81.5 °F 69.0 °F 29.98 in SE 1.5 mph 10.4 mph 66 % 0.00 in
15:52 81.8 °F 69.3 °F 29.98 in ESE 6.0 mph 12.0 mph 66 % 0.00 in
15:57 81.8 °F 68.9 °F 29.98 in SSW 3.7 mph 6.9 mph 65 % 0.00 in
16:02 81.8 °F 68.4 °F 29.98 in SSE 4.0 mph 12.0 mph 64 % 0.00 in
16:07 81.3 °F 68.4 °F 29.98 in South 2.0 mph 6.9 mph 65 % 0.00 in
16:12 80.9 °F 68.5 °F 29.98 in SSE 2.9 mph 5.0 mph 66 % 0.00 in
16:17 80.7 °F 68.7 °F 29.98 in South 2.6 mph 8.1 mph 67 % 0.00 in
16:28 80.2 °F 68.7 °F 29.98 in SSW 3.6 mph 8.0 mph 68 % 0.00 in
16:33 79.9 °F 68.4 °F 29.98 in SSW 1.8 mph 9.2 mph 68 % 0.00 in
16:38 79.7 °F 68.2 °F 29.98 in SSE 2.2 mph 4.6 mph 68 % 0.00 in
16:43 79.4 °F 67.9 °F 29.98 in SSE 2.2 mph 8.1 mph 68 % 0.00 in
16:48 79.1 °F 67.6 °F 29.98 in SSE 2.7 mph 9.2 mph 68 % 0.00 in
16:53 79.0 °F 68.0 °F 29.98 in SSE 1.2 mph 3.5 mph 69 % 0.00 in
16:58 78.9 °F 68.3 °F 29.98 in SSW 2.2 mph 4.6 mph 70 % 0.00 in
17:03 78.8 °F 67.8 °F 29.98 in SSE 1.6 mph 3.5 mph 69 % 0.00 in
17:08 78.5 °F 67.5 °F 29.98 in South 2.2 mph 5.8 mph 69 % 0.00 in
17:14 78.2 °F 67.6 °F 29.98 in South 1.4 mph 4.6 mph 70 % 0.00 in
17:19 77.8 °F 67.2 °F 29.97 in South 3.7 mph 6.9 mph 70 % 0.00 in
17:24 77.6 °F 67.4 °F 29.97 in South 2.5 mph 4.6 mph 71 % 0.00 in
17:29 77.5 °F 67.4 °F 29.97 in WSW 3.4 mph 9.0 mph 71 % 0.00 in
17:34 77.4 °F 67.3 °F 29.97 in SSW 1.2 mph 2.3 mph 71 % 0.00 in
17:39 77.4 °F 67.3 °F 29.98 in SSW 1.8 mph 5.8 mph 71 % 0.00 in
17:44 77.4 °F 67.7 °F 29.98 in North 1.4 mph 2.3 mph 72 % 0.00 in
17:49 77.3 °F 67.2 °F 29.97 in SSE 2.7 mph 8.1 mph 71 % 0.00 in
17:54 77.2 °F 67.5 °F 29.97 in SE 2.7 mph 5.8 mph 72 % 0.00 in
17:59 76.9 °F 67.2 °F 29.97 in SE 3.4 mph 8.1 mph 72 % 0.00 in
18:05 76.7 °F 67.0 °F 29.97 in SE 1.5 mph 4.0 mph 72 % 0.00 in
18:10 76.6 °F 67.3 °F 29.97 in SSW 4.0 mph 8.1 mph 73 % 0.00 in
18:15 76.6 °F 67.3 °F 29.97 in SW 3.9 mph 7.0 mph 73 % 0.00 in
18:20 76.3 °F 67.0 °F 29.97 in SSW 2.7 mph 10.4 mph 73 % 0.00 in
18:25 76.3 °F 67.0 °F 29.97 in South 4.2 mph 8.1 mph 73 % 0.00 in
18:30 76.2 °F 66.9 °F 29.97 in SSW 2.0 mph 5.0 mph 73 % 0.00 in
18:35 76.2 °F 66.9 °F 29.97 in SSW 2.4 mph 5.8 mph 73 % 0.00 in
18:40 76.1 °F 67.2 °F 29.97 in SW 0.6 mph 3.5 mph 74 % 0.00 in
18:45 76.0 °F 66.7 °F 29.97 in SE 2.7 mph 11.5 mph 73 % 0.00 in
18:50 75.7 °F 66.8 °F 29.97 in South 2.8 mph 8.1 mph 74 % 0.00 in
19:01 75.4 °F 66.9 °F 29.97 in South 3.4 mph 6.9 mph 75 % 0.00 in
19:06 75.1 °F 66.6 °F 29.97 in SSE 1.5 mph 5.8 mph 75 % 0.00 in
19:11 74.9 °F 66.8 °F 29.97 in South 3.3 mph 10.0 mph 76 % 0.00 in
19:16 74.8 °F 66.7 °F 29.97 in SSE 3.3 mph 8.0 mph 76 % 0.00 in
19:21 74.6 °F 66.9 °F 29.97 in South 1.6 mph 3.5 mph 77 % 0.00 in
19:26 74.5 °F 66.8 °F 29.97 in SE 5.6 mph 8.1 mph 77 % 0.00 in
19:31 74.2 °F 66.5 °F 29.97 in South 4.5 mph 13.8 mph 77 % 0.00 in
19:36 74.1 °F 66.8 °F 29.97 in SSW 1.9 mph 3.5 mph 78 % 0.00 in
19:41 74.0 °F 66.7 °F 29.97 in SSE 2.4 mph 5.0 mph 78 % 0.00 in
19:47 74.0 °F 66.7 °F 29.97 in SE 1.3 mph 8.1 mph 78 % 0.00 in
19:52 73.8 °F 66.5 °F 29.97 in SE 3.6 mph 10.4 mph 78 % 0.00 in
19:57 73.7 °F 66.8 °F 29.97 in SE 2.1 mph 8.1 mph 79 % 0.00 in
20:02 73.5 °F 66.2 °F 29.97 in SSW 2.9 mph 5.8 mph 78 % 0.00 in
20:07 73.5 °F 66.2 °F 29.97 in South 3.4 mph 8.1 mph 78 % 0.00 in
20:12 73.3 °F 66.0 °F 29.97 in SSE 4.9 mph 11.5 mph 78 % 0.00 in
20:17 73.3 °F 66.0 °F 29.97 in SSW 3.6 mph 6.9 mph 78 % 0.00 in
20:22 73.3 °F 66.0 °F 29.97 in SSE 2.9 mph 4.0 mph 78 % 0.00 in
20:27 73.2 °F 65.9 °F 29.97 in SSE 2.0 mph 3.5 mph 78 % 0.00 in
20:32 73.2 °F 65.9 °F 29.97 in SSW 4.0 mph 6.0 mph 78 % 0.00 in
20:38 73.2 °F 65.9 °F 29.97 in South 2.0 mph 3.5 mph 78 % 0.00 in
20:43 73.2 °F 65.9 °F 29.97 in South 4.3 mph 10.4 mph 78 % 0.00 in
20:48 73.1 °F 66.2 °F 29.97 in SSE 2.6 mph 8.1 mph 79 % 0.00 in
20:53 73.0 °F 66.1 °F 29.97 in SSW 2.7 mph 4.0 mph 79 % 0.00 in
20:58 72.8 °F 66.6 °F 29.97 in South 3.5 mph 5.8 mph 81 % 0.00 in
21:03 72.6 °F 66.4 °F 29.97 in SSW 2.4 mph 4.6 mph 81 % 0.00 in
21:08 72.4 °F 66.6 °F 29.97 in South 1.8 mph 4.6 mph 82 % 0.00 in
21:13 72.2 °F 66.7 °F 29.97 in SSW 0.7 mph 3.5 mph 83 % 0.00 in
21:18 72.1 °F 66.6 °F 29.97 in SW 1.1 mph 3.5 mph 83 % 0.00 in
21:23 71.9 °F 66.5 °F 29.98 in SSW 1.2 mph 4.6 mph 83 % 0.00 in
21:29 71.8 °F 66.4 °F 29.98 in South 0.6 mph 3.5 mph 83 % 0.00 in
21:34 71.7 °F 66.6 °F 29.98 in SE 0.8 mph 4.6 mph 84 % 0.00 in
21:39 71.6 °F 66.8 °F 29.98 in SSE 1.6 mph 4.6 mph 85 % 0.00 in
21:44 71.4 °F 66.7 °F 29.98 in South 1.3 mph 2.3 mph 85 % 0.00 in
21:49 71.2 °F 66.5 °F 29.98 in SE 0.9 mph 3.5 mph 85 % 0.00 in
21:54 71.1 °F 66.7 °F 29.98 in South 2.7 mph 6.9 mph 86 % 0.00 in
21:59 71.0 °F 66.6 °F 29.98 in SSE 2.0 mph 3.5 mph 86 % 0.00 in
22:04 71.0 °F 66.6 °F 29.98 in SSW 1.2 mph 3.5 mph 86 % 0.00 in
22:09 70.9 °F 66.8 °F 29.99 in SSW 1.2 mph 6.9 mph 87 % 0.00 in
22:14 70.8 °F 66.4 °F 29.98 in South 1.6 mph 5.8 mph 86 % 0.00 in
22:25 70.6 °F 66.5 °F 29.99 in SSE 1.2 mph 1.2 mph 87 % 0.00 in
22:30 70.6 °F 66.5 °F 29.99 in SE 1.7 mph 3.5 mph 87 % 0.00 in
22:35 70.5 °F 66.8 °F 29.99 in SW 0.7 mph 2.3 mph 88 % 0.00 in
22:40 70.5 °F 66.8 °F 29.99 in SSW 1.4 mph 4.0 mph 88 % 0.00 in
22:45 70.5 °F 66.8 °F 29.99 in SSW 0.1 mph 1.2 mph 88 % 0.00 in
22:50 70.5 °F 66.8 °F 29.99 in SE 1.1 mph 3.0 mph 88 % 0.00 in
22:55 70.5 °F 66.8 °F 29.98 in South 0.3 mph 2.3 mph 88 % 0.00 in
23:00 70.5 °F 66.8 °F 29.98 in SE 0.4 mph 1.2 mph 88 % 0.00 in
23:06 70.5 °F 66.8 °F 29.98 in SSE 1.6 mph 4.6 mph 88 % 0.00 in
23:11 70.5 °F 66.8 °F 29.98 in SSE 0.2 mph 2.3 mph 88 % 0.01 in
23:16 70.5 °F 66.8 °F 29.98 in South 0.1 mph 2.3 mph 88 % 0.01 in
23:21 70.4 °F 67.0 °F 29.98 in South 0.3 mph 1.2 mph 89 % 0.01 in
23:26 70.4 °F 67.0 °F 29.98 in Calm   2.3 mph 89 % 0.01 in
23:46 70.4 °F 67.0 °F 29.98 in Calm   1.2 mph 89 % 0.01 in
23:51 70.3 °F 66.9 °F 29.99 in WSW 0.5 mph 3.5 mph 89 % 0.01 in
23:57 70.3 °F 66.9 °F 29.99 in WNW 1.3 mph 3.5 mph 89 % 0.01 in
Crab Meadow Weather
Compliments of Weather Underground - 2.75 mb

Script developed by  Jim McMurry - jmcmurry@mwt.net Adapted for the template by  Wim van der Kuil - Leuven-Template.eu

Astronomy: Our moon is moving away from the earth at about 3cm per year.